Location: Cheyres
(46.8153°N, 6.7877°E)
Time: 14:35:05
(UTC+00:00)

Cosmos 990 Rocket - Pass Details

Date: 28 September 2021
Orbit: 746 x 769 km, 74.0° (Epoch: 17 October)

Event Time Altitude Azimuth Distance (km) Brightness Sun altitude
Rises 18:48:41 0° 181° (S) 3,182 7.1 -16.2°
Reaches altitude 10° 18:51:06 10° 175° (S) 2,265 6.2 -16.6°
Maximum altitude 18:55:57 44° 104° (ESE) 1,042 4.2 -17.4°
Drops below altitude 10° 19:00:51 10° 34° (NNE) 2,295 6.3 -18.2°
Sets 19:03:19 0° 28° (NNE) 3,229 7.1 -18.6°
